EST,Max TemperatureF,Mean TemperatureF,Min TemperatureF,Max Dew PointF,MeanDew PointF,Min DewpointF,Max Humidity, Mean Humidity, Min Humidity, Max Sea Level PressureIn, Mean Sea Level PressureIn, Min Sea Level PressureIn, Max VisibilityMiles, Mean VisibilityMiles, Min VisibilityMiles, Max Wind SpeedMPH, Mean Wind SpeedMPH, Max Gust SpeedMPH,PrecipitationIn, CloudCover, Events, WindDirDegrees
2013-1-1,47,44,42,43,38,29,100,77,49,30.07,30.01,29.94,10,9,3,14,8,,0.10,7,Rain,245
2013-1-2,42,39,36,41,36,27,100,88,67,30.22,30.06,29.99,10,8,4,14,10,,0.13,8,Rain,37
2013-1-3,38,33,28,27,25,21,92,69,54,30.27,30.23,30.19,10,10,10,9,5,,0.00,3,,41
2013-1-4,45,36,27,30,27,25,92,69,49,30.27,30.21,30.15,10,10,10,13,6,18,0.00,1,,250
2013-1-5,43,36,29,33,27,22,77,66,52,30.41,30.32,30.23,10,10,10,10,7,,0.00,1,,3
2013-1-6,49,42,35,37,36,33,91,77,62,30.25,30.16,30.07,10,10,6,9,7,,0.01,7,,212
2013-1-7,49,40,32,37,31,28,93,69,44,30.47,30.36,30.16,10,10,10,13,7,16,0.00,0,,5
2013-1-8,55,41,27,41,35,26,96,84,53,30.50,30.44,30.40,10,10,8,6,1,,0.00,2,,96
2013-1-9,66,52,37,51,46,37,97,76,57,30.43,30.37,30.32,10,10,10,12,4,,0.00,4,Rain,226
2013-1-10,53,46,38,49,38,30,97,73,41,30.59,30.50,30.39,10,10,6,16,5,,0.00,2,,22
2013-1-11,59,46,33,59,49,32,100,93,76,30.49,30.26,30.13,10,9,2,14,4,,0.03,7,Rain,187
2013-1-12,57,52,46,55,51,46,100,97,88,30.19,30.15,30.12,10,3,0,14,7,22,0.00,8,Fog,16
2013-1-13,66,56,47,61,51,45,100,96,77,30.16,30.13,30.06,10,3,0,9,5,,0.00,6,Fog,174
2013-1-14,66,55,44,61,53,44,100,95,78,30.24,30.17,30.08,10,4,0,21,9,28,0.80,7,Fog-Rain,17
2013-1-15,46,44,42,46,44,41,100,96,93,30.29,30.23,30.11,10,3,1,21,13,25,0.49,8,Rain,33
2013-1-16,48,44,40,47,43,39,100,98,93,30.09,30.04,29.97,10,4,0,14,6,,0.20,8,Fog-Rain,340
2013-1-17,46,40,32,46,42,32,100,97,87,30.13,30.05,29.99,10,5,1,22,7,32,0.95,8,Rain-Snow,34
2013-1-18,41,34,28,34,31,24,100,88,51,30.56,30.31,30.06,10,8,0,12,6,21,0.12,3,Fog-Rain-Snow,327
2013-1-19,52,40,27,32,29,25,94,64,40,30.52,30.35,30.13,10,10,10,13,5,17,0.00,0,,213
2013-1-20,60,51,42,36,34,30,69,56,39,30.11,30.01,29.91,10,10,10,22,10,31,0.00,0,,253
2013-1-21,52,43,34,39,31,22,77,60,41,30.11,29.98,29.81,10,10,10,13,7,20,0.00,0,,92
2013-1-22,37,30,24,22,9,-1,61,42,27,30.28,30.15,29.93,10,10,10,15,8,26,0.00,1,,319
2013-1-23,33,26,19,13,6,2,58,42,29,30.39,30.28,30.13,10,10,10,14,8,18,0.00,3,,280
2013-1-24,33,28,22,25,16,3,86,63,37,30.55,30.24,29.99,10,9,2,21,13,29,0.00,6,Snow,345
2013-1-25,30,24,19,24,19,6,93,78,44,30.53,30.24,30.11,10,6,0,13,7,,0.06,7,Fog-Snow,236
2013-1-26,33,26,18,27,23,17,95,87,71,30.45,30.25,30.11,10,8,5,10,4,,0.00,5,,279
2013-1-27,36,32,27,27,23,20,86,70,53,30.63,30.53,30.45,10,10,9,13,7,,0.00,3,,50
2013-1-28,51,40,29,46,33,24,87,78,66,30.53,30.37,30.15,10,9,4,20,9,26,0.03,7,,207
2013-1-29,70,59,48,54,49,45,93,78,55,30.17,30.12,30.09,10,9,3,16,12,25,0.00,1,,217
2013-1-30,74,66,57,61,58,52,95,81,61,30.09,29.83,29.46,10,9,5,26,15,44,0.00,3,,185
2013-1-31,69,53,37,63,46,20,94,71,35,29.99,29.53,29.31,10,6,0,52,26,75,0.56,5,Fog-Rain,235